Time,TemperatureF,DewpointF,PressureIn,WindDirection,WindDirectionDegrees,WindSpeedMPH,WindSpeedGustMPH,Humidity,HourlyPrecipIn,Conditions,Clouds,dailyrainin,SoftwareType,DateUTC
2013-09-03 00:11:00,78.2,74.0,29.76,South,169,1.0,1.0,86,0.00,,,0.03,weatherlink.com 1.10,2013-09-03 04:11:00,
2013-09-03 00:26:00,78.4,74.0,29.75,South,186,0.0,1.0,86,0.00,,,0.00,weatherlink.com 1.10,2013-09-03 04:26:00,
2013-09-03 00:41:00,78.4,74.0,29.75,South,186,0.0,2.0,86,0.00,,,0.00,weatherlink.com 1.10,2013-09-03 04:41:00,
2013-09-03 00:56:00,78.2,74.0,29.74,South,186,0.0,1.0,87,0.00,,,0.00,weatherlink.com 1.10,2013-09-03 04:56:00,
2013-09-03 01:11:00,78.1,74.0,29.73,South,186,0.0,0.0,86,0.00,,,0.00,weatherlink.com 1.10,2013-09-03 05:11:00,
2013-09-03 01:26:00,78.1,73.0,29.73,SW,214,0.0,1.0,85,0.00,,,0.00,weatherlink.com 1.10,2013-09-03 05:26:00,
2013-09-03 01:41:00,78.3,73.0,29.72,South,178,0.0,4.0,84,0.00,,,0.00,weatherlink.com 1.10,2013-09-03 05:41:00,
2013-09-03 01:56:00,78.3,73.0,29.72,SE,140,0.0,1.0,84,0.00,,,0.00,weatherlink.com 1.10,2013-09-03 05:56:00,
2013-09-03 02:11:00,78.2,73.0,29.72,SE,140,0.0,0.0,85,0.00,,,0.00,weatherlink.com 1.10,2013-09-03 06:11:00,
2013-09-03 02:26:00,78.1,73.0,29.72,SE,140,0.0,0.0,85,0.00,,,0.00,weatherlink.com 1.10,2013-09-03 06:26:00,
2013-09-03 02:41:00,78.0,73.0,29.73,SE,140,0.0,1.0,85,0.00,,,0.00,weatherlink.com 1.10,2013-09-03 06:41:00,
2013-09-03 02:57:00,78.0,73.0,29.73,ESE,108,0.0,2.0,84,0.00,,,0.00,weatherlink.com 1.10,2013-09-03 06:57:00,
2013-09-03 03:13:00,77.8,73.0,29.73,ESE,109,0.0,1.0,84,0.00,,,0.00,weatherlink.com 1.10,2013-09-03 07:13:00,
2013-09-03 03:27:00,77.6,73.0,29.72,ESE,109,0.0,1.0,85,0.00,,,0.00,weatherlink.com 1.10,2013-09-03 07:27:00,
2013-09-03 03:42:00,77.3,73.0,29.73,SE,142,0.0,1.0,85,0.00,,,0.00,weatherlink.com 1.10,2013-09-03 07:42:00,
2013-09-03 03:57:00,76.7,72.0,29.73,SE,142,0.0,0.0,86,0.00,,,0.00,weatherlink.com 1.10,2013-09-03 07:57:00,
2013-09-03 04:12:00,76.3,72.0,29.72,SE,142,0.0,0.0,87,0.00,,,0.00,weatherlink.com 1.10,2013-09-03 08:12:00,
2013-09-03 04:27:00,76.0,72.0,29.72,ENE,57,0.0,1.0,88,0.00,,,0.00,weatherlink.com 1.10,2013-09-03 08:27:00,
2013-09-03 04:42:00,76.0,72.0,29.73,ENE,57,0.0,1.0,88,0.00,,,0.00,weatherlink.com 1.10,2013-09-03 08:42:00,
2013-09-03 04:57:00,75.5,72.0,29.73,ENE,57,0.0,0.0,89,0.00,,,0.00,weatherlink.com 1.10,2013-09-03 08:57:00,
2013-09-03 05:12:00,75.2,72.0,29.73,ENE,58,0.0,0.0,90,0.00,,,0.00,weatherlink.com 1.10,2013-09-03 09:12:00,
2013-09-03 05:27:00,74.9,72.0,29.74,ENE,58,0.0,0.0,91,0.00,,,0.00,weatherlink.com 1.10,2013-09-03 09:27:00,
2013-09-03 05:42:00,74.8,72.0,29.74,ENE,58,0.0,0.0,91,0.00,,,0.00,weatherlink.com 1.10,2013-09-03 09:42:00,
2013-09-03 05:57:00,74.6,72.0,29.75,ENE,59,0.0,1.0,92,0.00,,,0.00,weatherlink.com 1.10,2013-09-03 09:57:00,
2013-09-03 06:12:00,74.4,72.0,29.76,ENE,59,0.0,0.0,91,0.00,,,0.00,weatherlink.com 1.10,2013-09-03 10:12:00,
2013-09-03 06:27:00,74.7,71.0,29.76,NW,304,0.0,4.0,89,0.00,,,0.00,weatherlink.com 1.10,2013-09-03 10:27:00,
2013-09-03 06:42:00,75.0,71.0,29.76,NW,304,0.0,3.0,87,0.00,,,0.00,weatherlink.com 1.10,2013-09-03 10:42:00,
2013-09-03 06:57:00,75.1,71.0,29.77,NW,304,0.0,1.0,87,0.00,,,0.00,weatherlink.com 1.10,2013-09-03 10:57:00,
2013-09-03 07:12:00,75.0,71.0,29.78,NW,304,0.0,1.0,88,0.00,,,0.00,weatherlink.com 1.10,2013-09-03 11:12:00,
2013-09-03 07:27:00,75.2,72.0,29.78,NW,304,0.0,2.0,88,0.00,,,0.00,weatherlink.com 1.10,2013-09-03 11:27:00,
2013-09-03 07:42:00,75.3,71.0,29.78,NW,304,2.0,2.0,87,0.00,,,0.00,weatherlink.com 1.10,2013-09-03 11:42:00,
2013-09-03 07:57:00,75.8,71.0,29.79,NW,304,1.0,3.0,84,0.00,,,0.00,weatherlink.com 1.10,2013-09-03 11:57:00,
2013-09-03 08:12:00,76.2,70.0,29.80,NW,309,1.0,3.0,81,0.00,,,0.00,weatherlink.com 1.10,2013-09-03 12:12:00,
2013-09-03 08:27:00,76.4,69.0,29.80,NW,310,3.0,4.0,78,0.00,,,0.00,weatherlink.com 1.10,2013-09-03 12:27:00,
2013-09-03 08:42:00,76.4,69.0,29.80,NW,309,0.0,3.0,79,0.00,,,0.00,weatherlink.com 1.10,2013-09-03 12:42:00,
2013-09-03 08:57:00,76.6,69.0,29.81,NW,309,0.0,3.0,78,0.00,,,0.00,weatherlink.com 1.10,2013-09-03 12:57:00,
2013-09-03 09:12:00,76.8,69.0,29.81,NW,309,1.0,3.0,78,0.00,,,0.00,weatherlink.com 1.10,2013-09-03 13:12:00,
2013-09-03 09:27:00,77.0,69.0,29.82,NW,309,0.0,2.0,77,0.00,,,0.00,weatherlink.com 1.10,2013-09-03 13:27:00,
2013-09-03 09:42:00,76.9,69.0,29.82,NW,309,1.0,4.0,76,0.00,,,0.00,weatherlink.com 1.10,2013-09-03 13:42:00,
2013-09-03 09:57:00,77.8,69.0,29.83,NW,310,0.0,4.0,75,0.00,,,0.00,weatherlink.com 1.10,2013-09-03 13:57:00,
2013-09-03 10:12:00,78.7,69.0,29.83,NW,310,1.0,4.0,72,0.00,,,0.00,weatherlink.com 1.10,2013-09-03 14:12:00,
2013-09-03 10:27:00,79.6,69.0,29.83,NW,310,2.0,4.0,69,0.00,,,0.00,weatherlink.com 1.10,2013-09-03 14:27:00,
2013-09-03 10:42:00,79.8,68.0,29.83,NW,311,0.0,5.0,68,0.00,,,0.00,weatherlink.com 1.10,2013-09-03 14:42:00,
2013-09-03 10:57:00,80.3,68.0,29.83,NW,323,0.0,3.0,67,0.00,,,0.00,weatherlink.com 1.10,2013-09-03 14:57:00,
2013-09-03 11:12:00,80.7,68.0,29.83,WNW,298,0.0,3.0,65,0.00,,,0.00,weatherlink.com 1.10,2013-09-03 15:12:00,
2013-09-03 11:27:00,80.9,68.0,29.83,WNW,298,1.0,3.0,64,0.00,,,0.00,weatherlink.com 1.10,2013-09-03 15:27:00,
2013-09-03 11:42:00,81.1,67.0,29.83,NW,308,1.0,4.0,63,0.00,,,0.00,weatherlink.com 1.10,2013-09-03 15:42:00,
2013-09-03 11:57:00,81.2,67.0,29.83,NW,308,0.0,4.0,63,0.00,,,0.00,weatherlink.com 1.10,2013-09-03 15:57:00,
2013-09-03 12:12:00,81.6,67.0,29.83,NW,312,3.0,4.0,62,0.00,,,0.00,weatherlink.com 1.10,2013-09-03 16:12:00,
2013-09-03 12:27:00,81.8,67.0,29.83,NW,305,0.0,3.0,62,0.00,,,0.00,weatherlink.com 1.10,2013-09-03 16:27:00,
2013-09-03 12:42:00,81.9,68.0,29.83,NNW,338,0.0,3.0,62,0.00,,,0.00,weatherlink.com 1.10,2013-09-03 16:42:00,
2013-09-03 12:58:00,83.0,68.0,29.83,NNW,338,0.0,3.0,60,0.00,,,0.00,weatherlink.com 1.10,2013-09-03 16:58:00,
2013-09-03 13:13:00,83.5,67.0,29.83,NNW,333,0.0,3.0,57,0.00,,,0.00,weatherlink.com 1.10,2013-09-03 17:13:00,
2013-09-03 13:28:00,83.0,66.0,29.83,NNW,340,0.0,2.0,56,0.00,,,0.00,weatherlink.com 1.10,2013-09-03 17:28:00,
2013-09-03 13:43:00,83.2,66.0,29.83,NNW,342,0.0,2.0,56,0.00,,,0.00,weatherlink.com 1.10,2013-09-03 17:43:00,
2013-09-03 13:58:00,83.4,66.0,29.83,West,277,1.0,2.0,55,0.00,,,0.00,weatherlink.com 1.10,2013-09-03 17:58:00,
2013-09-03 14:13:00,84.3,65.0,29.83,NNW,342,2.0,2.0,53,0.00,,,0.00,weatherlink.com 1.10,2013-09-03 18:13:00,
2013-09-03 14:28:00,84.1,64.0,29.82,NNW,346,0.0,3.0,51,0.00,,,0.00,weatherlink.com 1.10,2013-09-03 18:28:00,
2013-09-03 14:43:00,83.5,64.0,29.82,NW,310,1.0,4.0,52,0.00,,,0.00,weatherlink.com 1.10,2013-09-03 18:43:00,
2013-09-03 14:58:00,83.5,62.0,29.82,SW,222,1.0,4.0,49,0.00,,,0.00,weatherlink.com 1.10,2013-09-03 18:58:00,
2013-09-03 15:13:00,83.6,62.0,29.81,WNW,286,1.0,3.0,48,0.00,,,0.00,weatherlink.com 1.10,2013-09-03 19:13:00,
2013-09-03 15:28:00,83.9,63.0,29.81,SSW,203,1.0,2.0,49,0.00,,,0.00,weatherlink.com 1.10,2013-09-03 19:28:00,
2013-09-03 15:43:00,83.5,63.0,29.81,SW,220,0.0,3.0,51,0.00,,,0.00,weatherlink.com 1.10,2013-09-03 19:43:00,
2013-09-03 15:58:00,83.9,64.0,29.81,West,263,1.0,3.0,51,0.00,,,0.00,weatherlink.com 1.10,2013-09-03 19:58:00,
2013-09-03 16:13:00,83.6,62.0,29.81,NW,315,0.0,4.0,48,0.00,,,0.00,weatherlink.com 1.10,2013-09-03 20:13:00,
2013-09-03 16:28:00,83.9,63.0,29.81,WNW,302,3.0,4.0,49,0.00,,,0.00,weatherlink.com 1.10,2013-09-03 20:28:00,
2013-09-03 16:43:00,82.8,61.0,29.81,NE,51,0.0,5.0,48,0.00,,,0.00,weatherlink.com 1.10,2013-09-03 20:43:00,
2013-09-03 16:58:00,82.2,62.0,29.81,WNW,302,2.0,4.0,50,0.00,,,0.00,weatherlink.com 1.10,2013-09-03 20:58:00,
2013-09-03 17:13:00,81.9,61.0,29.82,West,268,0.0,2.0,49,0.00,,,0.00,weatherlink.com 1.10,2013-09-03 21:13:00,
2013-09-03 17:28:00,81.8,63.0,29.82,SSE,153,0.0,3.0,53,0.00,,,0.00,weatherlink.com 1.10,2013-09-03 21:28:00,
2013-09-03 17:43:00,81.2,61.0,29.82,NW,317,1.0,2.0,51,0.00,,,0.00,weatherlink.com 1.10,2013-09-03 21:43:00,
2013-09-03 17:58:00,81.4,63.0,29.83,NW,318,0.0,2.0,54,0.00,,,0.00,weatherlink.com 1.10,2013-09-03 21:58:00,
2013-09-03 18:13:00,80.9,62.0,29.83,NNW,341,0.0,2.0,52,0.00,,,0.00,weatherlink.com 1.10,2013-09-03 22:13:00,
2013-09-03 18:28:00,80.5,61.0,29.83,NNW,341,0.0,2.0,52,0.00,,,0.00,weatherlink.com 1.10,2013-09-03 22:28:00,
2013-09-03 18:43:00,80.0,62.0,29.83,NNW,341,0.0,1.0,54,0.00,,,0.00,weatherlink.com 1.10,2013-09-03 22:43:00,
2013-09-03 18:58:00,78.9,63.0,29.84,NNW,341,0.0,0.0,58,0.00,,,0.00,weatherlink.com 1.10,2013-09-03 22:58:00,
2013-09-03 19:13:00,77.9,63.0,29.84,NNW,341,0.0,0.0,60,0.00,,,0.00,weatherlink.com 1.10,2013-09-03 23:13:00,
2013-09-03 19:28:00,76.9,63.0,29.84,NNW,341,0.0,0.0,62,0.00,,,0.00,weatherlink.com 1.10,2013-09-03 23:28:00,
2013-09-03 19:43:00,75.7,64.0,29.84,NNW,341,0.0,0.0,68,0.00,,,0.00,weatherlink.com 1.10,2013-09-03 23:43:00,
2013-09-03 19:58:00,75.1,62.0,29.85,NNW,341,0.0,2.0,64,0.00,,,0.00,weatherlink.com 1.10,2013-09-03 23:58:00,
2013-09-03 20:13:00,75.4,62.0,29.85,NNW,341,0.0,0.0,64,0.00,,,0.00,weatherlink.com 1.10,2013-09-04 00:13:00,
2013-09-03 20:28:00,75.8,61.0,29.86,NNW,341,1.0,3.0,61,0.00,,,0.00,weatherlink.com 1.10,2013-09-04 00:28:00,
2013-09-03 20:43:00,76.9,61.0,29.87,NNW,340,0.0,2.0,58,0.00,,,0.00,weatherlink.com 1.10,2013-09-04 00:43:00,
2013-09-03 20:58:00,77.4,61.0,29.87,NW,315,1.0,3.0,57,0.00,,,0.00,weatherlink.com 1.10,2013-09-04 00:58:00,
2013-09-03 21:13:00,77.4,60.0,29.88,NW,315,1.0,3.0,56,0.00,,,0.00,weatherlink.com 1.10,2013-09-04 01:13:00,
2013-09-03 21:28:00,77.2,60.0,29.89,NW,315,3.0,4.0,55,0.00,,,0.00,weatherlink.com 1.10,2013-09-04 01:28:00,
2013-09-03 21:43:00,77.1,59.0,29.90,WNW,296,1.0,3.0,54,0.00,,,0.00,weatherlink.com 1.10,2013-09-04 01:43:00,
2013-09-03 21:58:00,76.7,59.0,29.90,NW,306,0.0,4.0,55,0.00,,,0.00,weatherlink.com 1.10,2013-09-04 01:58:00,
2013-09-03 22:13:00,76.2,60.0,29.91,NW,306,0.0,3.0,57,0.00,,,0.00,weatherlink.com 1.10,2013-09-04 02:13:00,
2013-09-03 22:28:00,75.5,60.0,29.91,WNW,298,2.0,4.0,59,0.00,,,0.00,weatherlink.com 1.10,2013-09-04 02:28:00,
2013-09-03 22:43:00,75.0,60.0,29.92,NW,311,1.0,4.0,60,0.00,,,0.00,weatherlink.com 1.10,2013-09-04 02:43:00,
2013-09-03 22:58:00,74.4,60.0,29.92,NW,309,2.0,3.0,62,0.00,,,0.00,weatherlink.com 1.10,2013-09-04 02:58:00,
2013-09-03 23:13:00,73.5,60.0,29.93,WNW,302,1.0,3.0,63,0.00,,,0.00,weatherlink.com 1.10,2013-09-04 03:13:00,
2013-09-03 23:28:00,72.8,59.0,29.93,WNW,302,2.0,4.0,62,0.00,,,0.00,weatherlink.com 1.10,2013-09-04 03:28:00,
2013-09-03 23:43:00,72.2,59.0,29.94,WNW,302,0.0,3.0,64,0.00,,,0.00,weatherlink.com 1.10,2013-09-04 03:43:00,
2013-09-03 23:58:00,71.8,58.0,29.94,WNW,302,2.0,4.0,63,0.00,,,0.00,weatherlink.com 1.10,2013-09-04 03:58:00,